World > North America > United States > Wyoming > Aladdin

Aladdin, WY Hourly Weather Conditions

Feedback E-mail the Weather

Quick WX

Aladdin, WY Weather Maps

°F °C°F °C
Aladdin Weather Map
UTC Time: 2/4/2023, 10:04
Your Time:

Aladdin, WY Regional Weather

Expires:202302041000;;776039
ASUS45 KCYS 040910
RWRWY 

WYOMING REGIONAL WEATHER ROUNDUP
NATIONAL WEATHER SERVICE CHEYENNE WY
200 AM MST SAT FEB 04 2023

NOTE:  "FAIR" INDICATES FEW OR NO CLOUDS BELOW 12,000 FEET
WITH NO SIGNIFICANT WEATHER AND/OR OBSTRUCTIONS TO VISIBILITY.


WYZ002>013-054>058-071-098>099-041000-
NORTHERN WYOMING
  
CITY           SKY/WX    TMP DP  RH WIND       PRES   REMARKS
JACKSON        FAIR      12  10  92 CALM      30.13F                  
CODY           FAIR      43  16  33 SW16G23   29.98S                  
GREYBULL       FAIR      12   8  84 SE8       30.00S WCI   0          
WORLAND        FAIR       9   7  92 SE5       29.99F WCI   1          
SHERIDAN       FAIR      47  21  35 W23G32    29.89R                  
BUFFALO        FAIR      42  18  37 NW8       29.87R                  
GILLETTE       FAIR      36  21  54 SW20      29.89R WCI  25          
NEWCASTLE      PTSUNNY   32  19  59 CALM      29.95F                  

$$

SKY/WX - Weather  TMP - Temperature  DP - Dew Point  RH - Humidity
WIND - Wind Direction/Speed PRES - Barometric Pressure VSB - Visibility
WCI - Wind Chill Index E13G22 Wind - East Wind 13 mph/Gusts of 22 mph

Trending Headlines

Trending Entertainment Headlines

Aladdin Radar Loop

Use the map search tool if you want to place a location marker on the radar map...

Aladdin Quick Facts

National Two Day Weather Forecast


E-mail the Aladdin Weather Forecast

Voice your opinion or tell us about page issues...